Kamloops,

11:56 PM PST on January 15, 2018 (GMT -0800)
Kamloops

Weather History for CYKA - November, 2012

Change the Weather History Date:

Tuesday, November 27, 2012

  Actual Average Record
Temperature  
Mean Temperature 32 °F -  
Max Temperature 37 °F 33 °F 53 °F (2011)
Min Temperature 27 °F 21 °F 1 °F (2006)
Degree Days  
Heating Degree Days 33    
Moisture  
Dew Point 26 °F    
Average Humidity 75    
Maximum Humidity 86    
Minimum Humidity 65    
Precipitation  
Precipitation 0.00 in 0.04 in - ()
Sea Level Pressure  
Sea Level Pressure 30.22 in    
Wind  
Wind Speed 8 mph ()    
Max Wind Speed 13 mph    
Max Gust Speed -    
Averages and records for this station are not official NWS values.
T = Trace of Precipitation, MM = Missing Value Source: Averaged Metar Reports

Daily Weather History Graph

Daily Weather History Graph

Search for Another Location

Airport or City:

Trip Planner

Search our weather history database for the weather conditions in past years. The results will help you decide how hot, cold, wet, or windy it might be!

Date:

Astronomy

Nov. 27, 2012 Rise Set
Actual Time 7:36 AM PST 4:02 PM PST
Civil Twilight 6:59 AM PST 4:39 PM PST
Nautical Twilight 6:17 AM PST 5:21 PM PST
Astronomical Twilight 5:38 AM PST 6:00 PM PST
Moon 3:38 PM PST (11/27) 6:44 AM PST (11/27)
Length of Visible Light 9h 40m
Length of Day
8h 25m
Waxing Gibbous, 99% of the Moon is Illuminated
Nov 27
Waxing Gibbous
Nov 28
Full
Dec 6
Last Quarter
Dec 13
New
Dec 19
First Quarter

Hourly Weather History & Observations

Time (PST) Temp. Windchill Dew Point Humidity Pressure Visibility Wind Dir Wind Speed Gust Speed Precip Events Conditions
12:00 AM 30.2 °F 23.4 °F 24.8 °F 80% 30.28 in 30.0 mi East 6.9 mph - N/A   Overcast
1:00 AM 30.2 °F 21.9 °F 24.8 °F 80% 30.28 in 30.0 mi East 9.2 mph - N/A   Overcast
2:00 AM 30.2 °F 22.6 °F 24.8 °F 80% 30.29 in 30.0 mi ESE 8.1 mph - N/A   Overcast
3:00 AM 30.2 °F 21.9 °F 24.8 °F 80% 30.28 in 30.0 mi ESE 9.2 mph - N/A   Overcast
4:00 AM 31 °F - 25 °F 69% 30.27 in 28 mi ESE 9.2 mph - -   Overcast
4:00 AM 30.2 °F 21.3 °F 24.8 °F 80% 30.27 in 30.0 mi ESE 10.4 mph - N/A   Overcast
4:28 AM - - - N/A% - 30.0 mi ESE 10.4 mph - N/A   Overcast
5:00 AM 30.2 °F 21.3 °F 24.8 °F 80% 30.27 in 40.0 mi ESE 10.4 mph - N/A   Overcast
6:00 AM 30.2 °F 21.9 °F 24.8 °F 80% 30.27 in 40.0 mi ESE 9.2 mph - N/A   Mostly Cloudy
7:00 AM 30.2 °F 21.9 °F 26.6 °F 86% 30.27 in 40.0 mi ESE 9.2 mph - N/A   Mostly Cloudy
8:00 AM 30.2 °F 23.4 °F 24.8 °F 80% 30.27 in 40.0 mi East 6.9 mph - N/A   Mostly Cloudy
9:00 AM 32.0 °F 24.2 °F 26.6 °F 80% 30.27 in 40.0 mi East 9.2 mph - N/A   Mostly Cloudy
10:00 AM 33 °F - 26 °F 67% 30.25 in 37 mi East 8.1 mph - -   Scattered Clouds
10:00 AM 33.8 °F 26.4 °F 26.6 °F 75% 30.25 in 40.0 mi East 9.2 mph - N/A   Mostly Cloudy
11:00 AM 35.6 °F 28.6 °F 26.6 °F 70% 30.24 in 40.0 mi East 9.2 mph - N/A   Mostly Cloudy
12:00 PM 35.6 °F 27.1 °F 26.6 °F 70% 30.22 in 40.0 mi East 12.7 mph - N/A   Mostly Cloudy
1:00 PM 37.4 °F 29.3 °F 26.6 °F 65% 30.19 in 40.0 mi East 12.7 mph - N/A   Mostly Cloudy
2:00 PM 37.4 °F 30.8 °F 26.6 °F 65% 30.17 in 40.0 mi ESE 9.2 mph - N/A   Overcast
4:00 PM 37.4 °F 31.4 °F 28.4 °F 70% 30.17 in 40.0 mi ESE 8.1 mph - N/A   Overcast
5:00 PM 35.6 °F 28.6 °F 26.6 °F 70% 30.16 in 40.0 mi ESE 9.2 mph - N/A   Overcast
6:00 PM 33.8 °F 25.3 °F 26.6 °F 75% 30.15 in 40.0 mi East 11.5 mph - N/A   Mostly Cloudy
7:00 PM 33.8 °F 25.8 °F 28.4 °F 81% 30.14 in 40.0 mi ESE 10.4 mph - N/A   Mostly Cloudy
8:00 PM 35.6 °F 28.0 °F 28.4 °F 75% 30.14 in 40.0 mi ESE 10.4 mph - N/A   Mostly Cloudy
9:00 PM 33.8 °F 26.4 °F 28.4 °F 81% 30.13 in 40.0 mi ESE 9.2 mph - N/A   Overcast
10:00 PM 34 °F - 27 °F 68% 30.13 in 37 mi ESE 9.2 mph - -   Overcast
10:00 PM 33.8 °F 26.4 °F 26.6 °F 75% 30.13 in 40.0 mi ESE 9.2 mph - N/A   Overcast
11:00 PM 33.8 °F 25.8 °F 26.6 °F 75% 30.12 in 40.0 mi ESE 10.4 mph - N/A   Mostly Cloudy